Flag for Poland Weather past 2 weeks in Warsaw, Poland

32 °F


Feels Like: 26 °F
Forecast: 29 / 46 °F
Wind: 7 mph from East

Location: Warsaw Okecie Airport

Current Time: Oct 9, 2015 at 7:20:08 AM

Latest Report: Oct 9, 2015 at 7:00 AM

Visibility: 10 mi

Pressure: 30.27 "Hg

Humidity: 75%

Dew point: 25 °F

Location of WarsawLocation

Historic Weather in Warsaw — Graph


Warsaw temperature yesterday

Maximum temperature yesterday: 54 °F (at 2:30 PM)
Minimum temperature yesterday: 36 °F (at 3:30 AM)
Average temperature yesterday: 43 °F

Past Weeks' High & Low Weather Summary

High75 °F (Sep 24, 2:00 PM)100% (Sep 24, 6:00 AM)30.63 "Hg (Sep 24, 6:00 AM)
Low32 °F (Oct 9, 5:00 AM)30% (Oct 8, 3:00 PM)29.95 "Hg (Oct 4, 2:00 PM)
Average53 °F73%30.22 "Hg
* Reported Sep 24 6:00 AM — Oct 9 6:00 AM, Warsaw, Weather by CustomWeather, © 2015

Note: Actual official high and low records may vary slightly from our data, if they occured in-between our weather recording intervals... More about our weather records


Warsaw weather history for previous 24 hours

Time TempWeatherWind HumidityBarometerVisibility
6:00 AM
Fri, Oct 9
34 °FClear.7 mph70%30.24 "Hg10 mi
5:30 AM34 °FClear.7 mph70%30.24 "Hg10 mi
5:00 AM32 °FClear.8 mph75%30.24 "Hg10 mi
4:30 AM34 °FClear.7 mph70%30.24 "Hg10 mi
4:00 AM34 °FClear.7 mph70%30.24 "Hg10 mi
3:30 AM36 °FClear.9 mph65%30.24 "Hg10 mi
3:00 AM36 °FClear.7 mph65%30.24 "Hg10 mi
2:30 AM36 °FClear.8 mph65%30.24 "Hg10 mi
2:00 AM37 °FClear.8 mph60%30.24 "Hg10 mi
1:30 AM37 °FClear.8 mph60%30.24 "Hg10 mi
1:00 AM39 °FClear.12 mph56%30.21 "Hg10 mi
12:30 AM39 °FClear.10 mph56%30.21 "Hg10 mi
11:00 PM
Thu, Oct 8
39 °FClear.12 mph56%30.21 "Hg10 mi
10:30 PM41 °FClear.10 mph53%30.21 "Hg10 mi
10:00 PM41 °FClear.12 mph49%30.21 "Hg10 mi
9:30 PM43 °FClear.13 mph46%30.21 "Hg10 mi
9:00 PM43 °FClear.13 mph46%30.21 "Hg10 mi
8:30 PM45 °FClear.12 mph42%30.21 "Hg10 mi
8:00 PM45 °FClear.9 mph42%30.21 "Hg10 mi
7:30 PM46 °FPassing clouds.9 mph40%30.21 "HgN/A
7:00 PM46 °FClear.7 mph40%30.21 "Hg10 mi
6:30 PM46 °FSunny.7 mph40%30.18 "Hg10 mi
6:00 PM48 °FPassing clouds.10 mph34%30.18 "HgN/A
5:30 PM50 °FSunny.12 mph32%30.18 "Hg10 mi
5:00 PM52 °FPassing clouds.13 mph30%30.18 "HgN/A
4:30 PM52 °FSunny.14 mph32%30.18 "Hg10 mi
4:00 PM52 °FPassing clouds.13 mph32%30.18 "HgN/A
3:30 PM54 °FPassing clouds.14 mph30%30.18 "HgN/A
3:00 PM54 °FPassing clouds.15 mph30%30.18 "HgN/A
2:30 PM54 °FPassing clouds.14 mph33%30.18 "HgN/A
2:00 PM52 °FPassing clouds.15 mph35%30.18 "HgN/A
1:30 PM52 °FSunny.15 mph38%30.21 "Hg10 mi
1:00 PM50 °FSunny.17 mph40%30.21 "Hg10 mi
12:30 PM50 °FPassing clouds.15 mph40%30.21 "HgN/A
12:00 PM52 °FSunny.13 mph41%30.21 "Hg10 mi
11:30 AM50 °FSunny.12 mph40%30.21 "Hg10 mi
11:00 AM48 °FSunny.10 mph43%30.21 "Hg10 mi
10:30 AM46 °FSunny.9 mph46%30.21 "Hg10 mi
10:00 AM43 °FPassing clouds.9 mph53%30.21 "HgN/A
9:30 AM41 °FPassing clouds.10 mph57%30.21 "HgN/A
9:00 AM39 °FSunny.12 mph56%30.21 "Hg10 mi
8:30 AM37 °FPassing clouds.12 mph60%30.21 "HgN/A
8:00 AM36 °FSunny.10 mph65%30.18 "Hg10 mi
7:30 AM36 °FClear.10 mph65%30.18 "Hg10 mi
7:00 AM36 °FClear.9 mph65%30.18 "Hg10 mi
Weather by CustomWeather, © 2015

See weather overviewHow to use our weather pages